Beaumont, TX

3:25 PM CST on November 20, 2017 (GMT -0600)
Southeast Texas Regional

Weather History for KBPT - November, 2013

Change the Weather History Date:

Saturday, November 30, 2013

  Actual Average Record
Temperature  
Mean Temperature 53 °F 57 °F  
Max Temperature 68 °F 67 °F 83 °F (1917)
Min Temperature 37 °F 48 °F 22 °F (1976)
Degree Days  
Heating Degree Days 12 9  
Month to date heating degree days 233 160  
Since 1 July heating degree days 242 195  
Cooling Degree Days 0 1  
Month to date cooling degree days 50 64  
Year to date cooling degree days 2995 2855  
Growing Degree Days 4 (Base 50)    
Moisture  
Dew Point 44 °F    
Average Humidity 73    
Maximum Humidity 100    
Minimum Humidity 45    
Precipitation  
Precipitation 0.00 in 0.15 in 2.65 in (1930)
Month to date precipitation 3.70 4.40  
Year to date precipitation 54.83 55.18  
Snow  
Snow 0.00 in 0.00 in 0.00 in ()
Month to date snowfall 0.0 0.0  
Since 1 July snowfall 0.0 0.0  
Since 1 September snowfall 0.0 0.0  
Snow Depth 0.00 in    
Sea Level Pressure  
Sea Level Pressure 30.31 in    
Wind  
Wind Speed 3 mph (ENE)    
Max Wind Speed 9 mph    
Max Gust Speed 12 mph    
Visibility 6 miles    
Events Fog    
T = Trace of Precipitation, MM = Missing Value Source: NWS Daily Summary

Daily Weather History Graph

Daily Weather History Graph

Search for Another Location

Airport or City:

Trip Planner

Search our weather history database for the weather conditions in past years. The results will help you decide how hot, cold, wet, or windy it might be!

Date:

Astronomy

Nov. 30, 2013 Rise Set
Actual Time 6:53 AM CST 5:15 PM CST
Civil Twilight 6:27 AM CST 5:41 PM CST
Nautical Twilight 5:58 AM CST 6:11 PM CST
Astronomical Twilight 5:29 AM CST 6:40 PM CST
Moon 4:14 AM CST (11/30) 3:32 PM CST (11/30)
Length of Visible Light 11h 14m
Length of Day
10h 22m
Waning Crescent, 7% of the Moon is Illuminated
Nov 30
Waning Crescent
Dec 2
New
Dec 9
First Quarter
Dec 17
Full
Dec 25
Last Quarter

Hourly Weather History & Observations

Time (CST) Temp. Windchill Dew Point Humidity Pressure Visibility Wind Dir Wind Speed Gust Speed Precip Events Conditions
12:53 AM 39.9 °F - 37.0 °F 89% 30.40 in 10.0 mi Calm Calm - N/A   Clear
1:53 AM 39.9 °F - 37.9 °F 93% 30.39 in 10.0 mi Calm Calm - N/A   Clear
2:53 AM 39.0 °F 35.7 °F 37.0 °F 93% 30.39 in 10.0 mi NNW 4.6 mph - N/A   Clear
3:53 AM 41.0 °F 38.0 °F 37.0 °F 86% 30.38 in 10.0 mi NE 4.6 mph - N/A   Clear
4:53 AM 41.0 °F 38.0 °F 37.0 °F 86% 30.38 in 10.0 mi NNE 4.6 mph - N/A   Clear
5:53 AM 41.0 °F 37.1 °F 37.0 °F 86% 30.39 in 10.0 mi NE 5.8 mph - N/A   Clear
6:53 AM 41.0 °F 38.0 °F 36.0 °F 82% 30.39 in 10.0 mi ENE 4.6 mph - N/A   Clear
7:53 AM 46.0 °F 44.8 °F 41.0 °F 83% 30.40 in 10.0 mi NE 3.5 mph - N/A   Clear
8:53 AM 53.1 °F - 43.0 °F 69% 30.40 in 10.0 mi ENE 5.8 mph - N/A   Clear
9:53 AM 59.0 °F - 44.1 °F 58% 30.41 in 10.0 mi East 9.2 mph - N/A   Clear
10:53 AM 62.1 °F - 44.1 °F 52% 30.41 in 10.0 mi East 5.8 mph - N/A   Clear
11:53 AM 64.0 °F - 45.0 °F 50% 30.38 in 10.0 mi Variable 5.8 mph - N/A   Clear
12:53 PM 66.0 °F - 46.0 °F 48% 30.35 in 10.0 mi Calm Calm - N/A   Clear
1:53 PM 66.9 °F - 45.0 °F 45% 30.31 in 10.0 mi Calm Calm - N/A   Clear
2:53 PM 68.0 °F - 46.0 °F 45% 30.28 in 10.0 mi East 6.9 mph - N/A   Clear
3:53 PM 66.0 °F - 45.0 °F 47% 30.27 in 10.0 mi SSE 5.8 mph - N/A   Clear
4:53 PM 60.1 °F - 44.1 °F 55% 30.27 in 10.0 mi SE 5.8 mph - N/A   Clear
5:53 PM 54.0 °F - 48.0 °F 80% 30.27 in 10.0 mi SSE 3.5 mph - N/A   Clear
6:53 PM 51.1 °F - 48.9 °F 92% 30.27 in 10.0 mi Calm Calm - N/A   Clear
7:53 PM 50.0 °F - 48.0 °F 93% 30.28 in 9.0 mi Calm Calm - N/A   Clear
8:53 PM 48.0 °F - 46.9 °F 96% 30.26 in 10.0 mi Calm Calm - N/A   Clear
9:53 PM 45.0 °F - 44.1 °F 97% 30.26 in 10.0 mi Calm Calm - N/A   Clear
10:00 PM 48.2 °F - 46.4 °F 93% 30.25 in 2.5 mi Calm Calm - N/A   Clear
10:07 PM 48.2 °F - 46.4 °F 93% 30.26 in 1.8 mi Calm Calm - N/A   Partly Cloudy
10:17 PM 46.4 °F - 46.4 °F 100% 30.26 in 1.0 mi Calm Calm - N/A   Clear
10:25 PM 46.4 °F - 44.6 °F 93% 30.25 in 2.0 mi Calm Calm - N/A   Clear
10:31 PM 46.4 °F - 46.4 °F 100% 30.26 in 1.2 mi Calm Calm - N/A   Clear
10:38 PM 46.4 °F - 44.6 °F 93% 30.26 in 0.5 mi Calm Calm - N/A Fog Fog
10:53 PM 45.0 °F - 44.1 °F 97% 30.26 in 0.2 mi Calm Calm - N/A Fog Fog
11:02 PM 44.6 °F - 44.6 °F 100% 30.26 in 0.8 mi Calm Calm - N/A   Mist
11:09 PM 44.6 °F - 44.6 °F 100% 30.26 in 1.2 mi Calm Calm - N/A   Partly Cloudy
11:16 PM 46.4 °F - 44.6 °F 93% 30.26 in 1.5 mi Calm Calm - N/A   Partly Cloudy
11:32 PM 46.4 °F - 44.6 °F 93% 30.26 in 1.0 mi Calm Calm - N/A   Mist
11:39 PM 46.4 °F - 44.6 °F 93% 30.26 in 0.5 mi Calm Calm - N/A Fog Fog
11:46 PM 46.4 °F 44.3 °F 44.6 °F 93% 30.26 in 0.2 mi North 4.6 mph - N/A Fog Fog
11:51 PM 44.6 °F 43.1 °F 44.6 °F 100% 30.26 in 1.0 mi North 3.5 mph - N/A   Mist
11:53 PM 45.0 °F 43.5 °F 44.1 °F 97% 30.26 in 1.5 mi North 3.5 mph - N/A   Partly Cloudy